STARLINK-3904, 52464

Orbit data source: Space-Track

STARLINK-3904, 52464 is a payload satellite owned by SpaceX/Seattle (US) in LEO that was launched on Fri, 06 May 2022 UTC via an FALCON 9 launch vehicle from the Air Force Eastern Test Range (AFETR). Payload-class satellites include a variety of spacecraft equipped with specific instruments for various scientific and technological missions. These include communications satellites like Starlink; space stations such as the ISS; scientific satellites like the Hubble; Earth observation satellites from companies like Planet Labs, Umbra, and HawkEye 360; GPS; miniature CubeSats for education and research; and military/defense satellites.

Loading next visibility...
Identifier
52464, 2022-049P
Orbit
LEO
Country
Flag of USUS
Related business
Manufacturer
SpaceX/Seattle
Mission
Operational Commercial Communications
Bus & Motor
STARLINK, Unknown motor
Mass
297 kg wet, ~220 kg dry
Launch date (UTC)
2022-05-06 (4 years ago)
Launch vehicle
FALCON 9
Launch site
Air Force Eastern Test Range (AFETR)
Object type
Payload
Rocket body
Debris
Shape & HBR
Box + 1 Pan, 10.1 m
Radar Cross Section
13.562 m², Large (>1 m²)

Expand to show TLE details & history
Last TLE update: 15 hours ago

TLE from 15 hours ago
0 STARLINK-3904
1 52464U 22049P   26206.58335648  .00043500  00000-0  19806-2 0  9994
2 52464  53.1604 159.3213 0001674  91.1287 134.5696 15.20292524  5788
Epoch: 2026-07-25T14:00Z
TLE epoch observation values (Epoch: 2026-07-25T14:00:01.999Z)
Latitude
-35.16014°
Longitude
-142.32569°
Altitude
516.956 km
Speed
7.604 km/s
True Right ascension
00h 43m 54s
True Declination
-34° 59' 34"
Sunlit
Object was in full shadow at epoch
Visualization orbit readout
Latitude
Unknown
Longitude
Unknown
Altitude
Unknown
Speed
Unknown
Apparent Right ascension
Unknown
Apparent Declination
Unknown
Sunlit
N/A
Visualization observer readout
Local Sidereal Time
18:19:18
Azimuth
Unknown
Elevation
Unknown
Doppler factor
Unknown
Orbital elements
Apogee altitude
506.365 km
Perigee altitude
504.061 km
Semi-major axis
6,883.35 km
Eccentricity
0.00017
Inclination
53.1604°
RAAN
159.3213°
Arg. of periapsis
91.1287°
True anomaly
134.58326°
Mean anomaly
134.5696°
Eccentric anomaly
134.57643°
Mean motion
3.80052 °/min
Orbital period
94.72 mins
BSTAR
0.0019806
Loading maneuver chart data...
Computing Atmospheric mass density...
Loading historical data...
Loading historical data...
Loading historical data...
Loading historical data...
Loading historical data...
Loading historical data...
Loading historical data...

Documentation

Showing up to 5 results
|